Time,TemperatureF,DewpointF,PressureIn,WindDirection,WindDirectionDegrees,WindSpeedMPH,WindSpeedGustMPH,Humidity,HourlyPrecipIn,Conditions,Clouds,dailyrainin,SoftwareType,DateUTC
2013-01-05 00:01:00,48.8,37.6,30.28,North,357,8.0,8.0,65,0.00,,---,0.00,VWS V14.01,2013-01-05 06:01:00,
2013-01-05 00:06:00,48.8,37.6,30.28,North,4,8.0,12.0,65,0.00,,---,0.00,VWS V14.01,2013-01-05 06:06:00,
2013-01-05 00:11:00,48.8,37.6,30.28,NNW,342,5.0,13.0,65,0.00,,---,0.00,VWS V14.01,2013-01-05 06:11:00,
2013-01-05 00:16:00,48.8,38.0,30.28,NNW,345,3.0,6.0,66,0.00,,---,0.00,VWS V14.01,2013-01-05 06:16:00,
2013-01-05 00:21:00,48.6,38.2,30.28,North,354,6.0,11.0,67,0.00,,---,0.00,VWS V14.01,2013-01-05 06:21:00,
2013-01-05 00:26:00,48.6,38.2,30.28,NNW,334,8.0,13.0,67,0.00,,---,0.00,VWS V14.01,2013-01-05 06:26:00,
2013-01-05 00:31:00,48.5,38.4,30.28,NNW,342,4.0,11.0,68,0.00,,---,0.00,VWS V14.01,2013-01-05 06:31:00,
2013-01-05 00:36:00,48.3,38.2,30.28,NNW,344,7.0,12.0,68,0.00,,---,0.00,VWS V14.01,2013-01-05 06:36:00,
2013-01-05 00:41:00,48.3,38.6,30.28,North,1,7.0,15.0,69,0.00,,---,0.00,VWS V14.01,2013-01-05 06:41:00,
2013-01-05 00:46:00,48.2,38.5,30.27,NW,323,6.0,11.0,69,0.00,,---,0.00,VWS V14.01,2013-01-05 06:46:00,
2013-01-05 00:51:00,48.2,38.5,30.27,NNW,344,6.0,11.0,69,0.00,,---,0.00,VWS V14.01,2013-01-05 06:51:00,
2013-01-05 00:56:00,48.0,38.7,30.27,North,358,6.0,11.0,70,0.00,,---,0.00,VWS V14.01,2013-01-05 06:56:00,
2013-01-05 01:01:00,47.9,38.6,30.27,North,358,5.0,13.0,70,0.00,,---,0.00,VWS V14.01,2013-01-05 07:01:00,
2013-01-05 01:06:00,47.9,38.6,30.27,North,357,8.0,13.0,70,0.00,,---,0.00,VWS V14.01,2013-01-05 07:06:00,
2013-01-05 01:11:00,47.7,38.4,30.27,NNW,347,6.0,18.0,70,0.00,,---,0.00,VWS V14.01,2013-01-05 07:11:00,
2013-01-05 01:16:00,47.7,38.4,30.27,North,2,4.0,8.0,70,0.00,,---,0.00,VWS V14.01,2013-01-05 07:16:00,
2013-01-05 01:21:00,47.7,38.4,30.27,NNW,345,7.0,12.0,70,0.00,,---,0.00,VWS V14.01,2013-01-05 07:21:00,
2013-01-05 01:26:00,47.6,38.3,30.27,North,357,3.0,13.0,70,0.00,,---,0.00,VWS V14.01,2013-01-05 07:26:00,
2013-01-05 01:31:00,47.6,38.3,30.26,NW,314,12.0,12.0,70,0.00,,---,0.00,VWS V14.01,2013-01-05 07:31:00,
2013-01-05 01:36:00,47.6,38.3,30.26,North,354,13.0,14.0,70,0.00,,---,0.00,VWS V14.01,2013-01-05 07:36:00,
2013-01-05 01:41:00,47.6,38.3,30.26,North,357,8.0,14.0,70,0.00,,---,0.00,VWS V14.01,2013-01-05 07:41:00,
2013-01-05 01:46:00,47.4,38.5,30.26,NNW,338,11.0,11.0,71,0.00,,---,0.00,VWS V14.01,2013-01-05 07:46:00,
2013-01-05 01:51:00,47.4,38.5,30.26,North,357,8.0,13.0,71,0.00,,---,0.00,VWS V14.01,2013-01-05 07:51:00,
2013-01-05 01:56:00,47.3,38.4,30.26,NNW,338,11.0,20.0,71,0.00,,---,0.00,VWS V14.01,2013-01-05 07:56:00,
2013-01-05 02:01:00,47.3,38.4,30.25,NNW,340,8.0,11.0,71,0.00,,---,0.00,VWS V14.01,2013-01-05 08:01:00,
2013-01-05 02:06:00,47.3,38.4,30.25,North,358,8.0,11.0,71,0.00,,---,0.00,VWS V14.01,2013-01-05 08:06:00,
2013-01-05 02:11:00,47.3,38.4,30.25,North,4,4.0,14.0,71,0.00,,---,0.00,VWS V14.01,2013-01-05 08:11:00,
2013-01-05 02:16:00,47.3,38.4,30.25,NNW,344,6.0,14.0,71,0.00,,---,0.00,VWS V14.01,2013-01-05 08:16:00,
2013-01-05 02:21:00,47.1,38.2,30.25,NNW,334,6.0,14.0,71,0.00,,---,0.00,VWS V14.01,2013-01-05 08:21:00,
2013-01-05 02:26:00,47.1,38.2,30.25,North,357,7.0,14.0,71,0.00,,---,0.00,VWS V14.01,2013-01-05 08:26:00,
2013-01-05 02:31:00,47.1,38.2,30.25,NNW,337,8.0,11.0,71,0.00,,---,0.00,VWS V14.01,2013-01-05 08:31:00,
2013-01-05 02:36:00,47.1,38.2,30.25,North,358,13.0,15.0,71,0.00,,---,0.00,VWS V14.01,2013-01-05 08:36:00,
2013-01-05 02:41:00,47.1,38.2,30.25,NNW,333,8.0,15.0,71,0.00,,---,0.00,VWS V14.01,2013-01-05 08:41:00,
2013-01-05 02:46:00,47.1,38.2,30.25,NW,316,7.0,13.0,71,0.00,,---,0.00,VWS V14.01,2013-01-05 08:46:00,
2013-01-05 02:51:00,47.0,38.1,30.25,North,358,8.0,14.0,71,0.00,,---,0.00,VWS V14.01,2013-01-05 08:51:00,
2013-01-05 02:56:00,47.0,38.1,30.25,North,355,8.0,16.0,71,0.00,,---,0.00,VWS V14.01,2013-01-05 08:56:00,
2013-01-05 03:01:00,47.0,38.1,30.25,NNW,340,7.0,12.0,71,0.00,,---,0.00,VWS V14.01,2013-01-05 09:01:00,
2013-01-05 03:06:00,47.0,38.1,30.25,NNW,342,12.0,18.0,71,0.00,,---,0.00,VWS V14.01,2013-01-05 09:06:00,
2013-01-05 03:11:00,46.8,37.9,30.25,North,355,8.0,18.0,71,0.00,,---,0.00,VWS V14.01,2013-01-05 09:11:00,
2013-01-05 03:16:00,46.8,37.9,30.25,NNE,21,8.0,13.0,71,0.00,,---,0.00,VWS V14.01,2013-01-05 09:16:00,
2013-01-05 03:21:00,46.7,38.2,30.25,North,352,8.0,16.0,72,0.00,,---,0.00,VWS V14.01,2013-01-05 09:21:00,
2013-01-05 03:26:00,46.7,38.2,30.25,North,358,6.0,16.0,72,0.00,,---,0.00,VWS V14.01,2013-01-05 09:26:00,
2013-01-05 03:31:00,46.5,38.0,30.25,NNW,348,10.0,15.0,72,0.00,,---,0.00,VWS V14.01,2013-01-05 09:31:00,
2013-01-05 03:36:00,46.5,38.3,30.25,NNW,345,7.0,17.0,73,0.00,,---,0.00,VWS V14.01,2013-01-05 09:36:00,
2013-01-05 03:41:00,46.4,38.2,30.25,NNW,331,9.0,17.0,73,0.00,,---,0.00,VWS V14.01,2013-01-05 09:41:00,
2013-01-05 03:46:00,46.4,38.2,30.25,North,355,6.0,8.0,73,0.00,,---,0.00,VWS V14.01,2013-01-05 09:46:00,
2013-01-05 03:51:00,46.4,38.2,30.25,North,355,8.0,11.0,73,0.00,,---,0.00,VWS V14.01,2013-01-05 09:51:00,
2013-01-05 03:56:00,46.4,38.2,30.25,North,352,6.0,12.0,73,0.00,,---,0.00,VWS V14.01,2013-01-05 09:56:00,
2013-01-05 04:01:00,46.4,38.2,30.25,NNW,342,7.0,13.0,73,0.00,,---,0.00,VWS V14.01,2013-01-05 10:01:00,
2013-01-05 04:06:00,46.4,37.9,30.25,North,354,8.0,14.0,72,0.00,,---,0.00,VWS V14.01,2013-01-05 10:06:00,
2013-01-05 04:11:00,46.4,37.9,30.25,North,350,5.0,14.0,72,0.00,,---,0.00,VWS V14.01,2013-01-05 10:11:00,
2013-01-05 04:16:00,46.4,37.9,30.25,NNW,338,12.0,12.0,72,0.00,,---,0.00,VWS V14.01,2013-01-05 10:16:00,
2013-01-05 04:21:00,46.5,38.0,30.25,NW,321,10.0,17.0,72,0.00,,---,0.00,VWS V14.01,2013-01-05 10:21:00,
2013-01-05 04:26:00,46.5,38.0,30.25,NNW,342,6.0,17.0,72,0.00,,---,0.00,VWS V14.01,2013-01-05 10:26:00,
2013-01-05 04:31:00,46.7,38.2,30.25,North,358,4.0,11.0,72,0.00,,---,0.00,VWS V14.01,2013-01-05 10:31:00,
2013-01-05 04:36:00,46.7,38.2,30.25,North,351,3.0,15.0,72,0.00,,---,0.00,VWS V14.01,2013-01-05 10:36:00,
2013-01-05 04:41:00,46.8,38.6,30.25,NNW,345,10.0,15.0,73,0.00,,---,0.00,VWS V14.01,2013-01-05 10:41:00,
2013-01-05 04:46:00,46.8,38.6,30.25,North,358,7.0,9.0,73,0.00,,---,0.00,VWS V14.01,2013-01-05 10:46:00,
2013-01-05 04:51:00,46.8,38.6,30.25,NNW,345,8.0,11.0,73,0.00,,---,0.00,VWS V14.01,2013-01-05 10:51:00,
2013-01-05 04:56:00,46.7,38.9,30.25,North,357,8.0,12.0,74,0.00,,---,0.00,VWS V14.01,2013-01-05 10:56:00,
2013-01-05 05:01:00,46.5,39.0,30.25,North,358,11.0,12.0,75,0.00,,---,0.00,VWS V14.01,2013-01-05 11:01:00,
2013-01-05 05:06:00,46.4,38.9,30.25,North,355,9.0,15.0,75,0.00,,---,0.00,VWS V14.01,2013-01-05 11:06:00,
2013-01-05 05:11:00,46.4,39.3,30.25,North,350,6.0,15.0,76,0.00,,---,0.00,VWS V14.01,2013-01-05 11:11:00,
2013-01-05 05:16:00,46.2,39.1,30.25,North,357,7.0,11.0,76,0.00,,---,0.00,VWS V14.01,2013-01-05 11:16:00,
2013-01-05 05:21:00,46.2,39.4,30.25,NNW,345,6.0,11.0,77,0.00,,---,0.00,VWS V14.01,2013-01-05 11:21:00,
2013-01-05 05:26:00,46.1,39.3,30.25,North,358,7.0,12.0,77,0.00,,---,0.00,VWS V14.01,2013-01-05 11:26:00,
2013-01-05 05:31:00,46.0,39.2,30.25,North,5,5.0,9.0,77,0.00,,---,0.00,VWS V14.01,2013-01-05 11:31:00,
2013-01-05 05:36:00,46.0,38.9,30.25,North,6,7.0,15.0,76,0.00,,---,0.00,VWS V14.01,2013-01-05 11:36:00,
2013-01-05 05:41:00,46.0,38.9,30.25,NNW,340,7.0,15.0,76,0.00,,---,0.00,VWS V14.01,2013-01-05 11:41:00,
2013-01-05 05:46:00,46.1,39.0,30.25,North,358,6.0,7.0,76,0.00,,---,0.00,VWS V14.01,2013-01-05 11:46:00,
2013-01-05 05:51:00,46.1,39.3,30.25,NNW,328,6.0,11.0,77,0.00,,---,0.00,VWS V14.01,2013-01-05 11:51:00,
2013-01-05 05:56:00,46.0,39.2,30.25,NNW,342,6.0,11.0,77,0.00,,---,0.00,VWS V14.01,2013-01-05 11:56:00,
2013-01-05 06:01:00,46.0,39.2,30.25,North,355,6.0,7.0,77,0.00,,---,0.00,VWS V14.01,2013-01-05 12:01:00,
2013-01-05 06:06:00,46.0,39.2,30.25,NNW,334,5.0,11.0,77,0.00,,---,0.00,VWS V14.01,2013-01-05 12:06:00,
2013-01-05 06:11:00,46.0,39.5,30.25,NNE,18,8.0,11.0,78,0.00,,---,0.00,VWS V14.01,2013-01-05 12:11:00,
2013-01-05 06:16:00,45.8,39.3,30.26,North,351,7.0,12.0,78,0.00,,---,0.00,VWS V14.01,2013-01-05 12:16:00,
2013-01-05 06:21:00,45.8,39.3,30.26,NNW,338,9.0,12.0,78,0.00,,---,0.00,VWS V14.01,2013-01-05 12:21:00,
2013-01-05 06:26:00,45.7,39.2,30.26,North,355,7.0,14.0,78,0.00,,---,0.00,VWS V14.01,2013-01-05 12:26:00,
2013-01-05 06:31:00,45.5,39.0,30.26,North,358,7.0,12.0,78,0.00,,---,0.00,VWS V14.01,2013-01-05 12:31:00,
2013-01-05 06:37:00,45.5,39.0,30.26,North,358,7.0,13.0,78,0.00,,---,0.00,VWS V14.01,2013-01-05 12:37:00,
2013-01-05 06:42:00,45.5,39.0,30.26,North,355,4.0,13.0,78,0.00,,---,0.00,VWS V14.01,2013-01-05 12:42:00,
2013-01-05 06:47:00,45.5,39.4,30.26,North,358,3.0,8.0,79,0.00,,---,0.00,VWS V14.01,2013-01-05 12:47:00,
2013-01-05 06:52:00,45.5,39.0,30.26,North,358,4.0,12.0,78,0.00,,---,0.00,VWS V14.01,2013-01-05 12:52:00,
2013-01-05 06:57:00,45.5,39.0,30.26,North,359,7.0,12.0,78,0.00,,---,0.00,VWS V14.01,2013-01-05 12:57:00,
2013-01-05 07:02:00,45.5,39.0,30.27,North,357,7.0,8.0,78,0.00,,---,0.00,VWS V14.01,2013-01-05 13:02:00,
2013-01-05 07:07:00,45.5,39.4,30.27,North,354,10.0,12.0,79,0.00,,---,0.00,VWS V14.01,2013-01-05 13:07:00,
2013-01-05 07:12:00,45.5,39.4,30.27,North,358,5.0,13.0,79,0.00,,---,0.00,VWS V14.01,2013-01-05 13:12:00,
2013-01-05 07:17:00,45.5,39.4,30.27,North,358,7.0,8.0,79,0.00,,---,0.00,VWS V14.01,2013-01-05 13:17:00,
2013-01-05 07:22:00,45.4,39.3,30.27,North,358,10.0,13.0,79,0.00,,---,0.00,VWS V14.01,2013-01-05 13:22:00,
2013-01-05 07:27:00,45.5,39.7,30.27,North,357,8.0,13.0,80,0.00,,---,0.00,VWS V14.01,2013-01-05 13:27:00,
2013-01-05 07:32:00,45.5,39.7,30.27,NNE,23,11.0,12.0,80,0.00,,---,0.00,VWS V14.01,2013-01-05 13:32:00,
2013-01-05 07:37:00,45.5,39.7,30.27,NNE,12,10.0,12.0,80,0.00,,---,0.00,VWS V14.01,2013-01-05 13:37:00,
2013-01-05 07:42:00,45.5,39.7,30.27,North,358,3.0,12.0,80,0.00,,---,0.00,VWS V14.01,2013-01-05 13:42:00,
2013-01-05 07:47:00,45.5,39.7,30.28,NNE,21,9.0,13.0,80,0.00,,---,0.00,VWS V14.01,2013-01-05 13:47:00,
2013-01-05 07:52:00,45.7,39.9,30.28,NNE,16,6.0,13.0,80,0.00,,---,0.00,VWS V14.01,2013-01-05 13:52:00,
2013-01-05 07:57:00,45.7,39.9,30.28,NNW,348,3.0,13.0,80,0.00,,---,0.00,VWS V14.01,2013-01-05 13:57:00,
2013-01-05 08:02:00,45.7,39.6,30.28,NNE,14,3.0,8.0,79,0.00,,---,0.00,VWS V14.01,2013-01-05 14:02:00,
2013-01-05 08:07:00,45.8,39.7,30.28,North,352,4.0,8.0,79,0.00,,---,0.00,VWS V14.01,2013-01-05 14:07:00,
2013-01-05 08:12:00,45.8,39.7,30.28,NNW,341,8.0,13.0,79,0.00,,---,0.00,VWS V14.01,2013-01-05 14:12:00,
2013-01-05 08:17:00,45.8,39.3,30.29,North,350,4.0,7.0,78,0.00,,---,0.00,VWS V14.01,2013-01-05 14:17:00,
2013-01-05 08:22:00,45.8,39.3,30.29,NNW,345,9.0,12.0,78,0.00,,---,0.00,VWS V14.01,2013-01-05 14:22:00,
2013-01-05 08:27:00,45.7,38.9,30.29,NNW,334,6.0,12.0,77,0.00,,---,0.00,VWS V14.01,2013-01-05 14:27:00,
2013-01-05 08:32:00,45.7,38.9,30.29,NNE,16,10.0,12.0,77,0.00,,---,0.00,VWS V14.01,2013-01-05 14:32:00,
2013-01-05 08:37:00,45.7,38.9,30.29,North,358,7.0,12.0,77,0.00,,---,0.00,VWS V14.01,2013-01-05 14:37:00,
2013-01-05 08:42:00,45.7,38.9,30.29,North,351,5.0,12.0,77,0.00,,---,0.00,VWS V14.01,2013-01-05 14:42:00,
2013-01-05 08:47:00,45.7,38.9,30.29,North,358,8.0,12.0,77,0.00,,---,0.00,VWS V14.01,2013-01-05 14:47:00,
2013-01-05 08:52:00,45.7,38.9,30.29,North,358,6.0,12.0,77,0.00,,---,0.00,VWS V14.01,2013-01-05 14:52:00,
2013-01-05 08:57:00,45.8,39.0,30.29,North,358,6.0,12.0,77,0.00,,---,0.00,VWS V14.01,2013-01-05 14:57:00,
2013-01-05 09:02:00,45.8,39.0,30.29,North,358,8.0,8.0,77,0.00,,---,0.00,VWS V14.01,2013-01-05 15:02:00,
2013-01-05 09:07:00,45.8,39.0,30.29,North,355,8.0,11.0,77,0.00,,---,0.00,VWS V14.01,2013-01-05 15:07:00,
2013-01-05 09:12:00,46.0,39.5,30.29,North,350,6.0,11.0,78,0.00,,---,0.00,VWS V14.01,2013-01-05 15:12:00,
2013-01-05 09:17:00,46.1,39.3,30.29,North,357,7.0,9.0,77,0.00,,---,0.00,VWS V14.01,2013-01-05 15:17:00,
2013-01-05 09:22:00,46.1,39.3,30.29,North,358,4.0,13.0,77,0.00,,---,0.00,VWS V14.01,2013-01-05 15:22:00,
2013-01-05 09:27:00,46.2,39.4,30.29,NNW,327,11.0,13.0,77,0.00,,---,0.00,VWS V14.01,2013-01-05 15:27:00,
2013-01-05 09:32:00,46.2,39.4,30.29,North,358,6.0,8.0,77,0.00,,---,0.00,VWS V14.01,2013-01-05 15:32:00,
2013-01-05 09:37:00,46.2,39.7,30.29,North,5,4.0,9.0,78,0.00,,---,0.00,VWS V14.01,2013-01-05 15:37:00,
2013-01-05 09:42:00,46.2,39.7,30.29,North,9,8.0,11.0,78,0.00,,---,0.00,VWS V14.01,2013-01-05 15:42:00,
2013-01-05 09:47:00,46.4,39.9,30.30,NNW,334,4.0,9.0,78,0.00,,---,0.00,VWS V14.01,2013-01-05 15:47:00,
2013-01-05 09:52:00,46.5,40.0,30.30,NNW,345,5.0,10.0,78,0.00,,---,0.00,VWS V14.01,2013-01-05 15:52:00,
2013-01-05 09:57:00,46.5,40.0,30.30,NNW,347,5.0,10.0,78,0.00,,---,0.00,VWS V14.01,2013-01-05 15:57:00,
2013-01-05 10:02:00,46.7,40.2,30.30,North,359,7.0,13.0,78,0.00,,---,0.00,VWS V14.01,2013-01-05 16:02:00,
2013-01-05 10:07:00,46.7,40.5,30.30,North,11,6.0,13.0,79,0.00,,---,0.00,VWS V14.01,2013-01-05 16:07:00,
2013-01-05 10:12:00,46.7,40.5,30.30,NNW,328,9.0,13.0,79,0.00,,---,0.00,VWS V14.01,2013-01-05 16:12:00,
2013-01-05 10:17:00,46.5,40.7,30.30,NNW,328,7.0,8.0,80,0.00,,---,0.00,VWS V14.01,2013-01-05 16:17:00,
2013-01-05 10:22:00,46.5,40.7,30.30,North,2,6.0,9.0,80,0.00,,---,0.00,VWS V14.01,2013-01-05 16:22:00,
2013-01-05 10:27:00,46.4,40.9,30.30,North,11,5.0,9.0,81,0.00,,---,0.00,VWS V14.01,2013-01-05 16:27:00,
2013-01-05 10:32:00,46.5,41.0,30.29,North,350,6.0,7.0,81,0.00,,---,0.00,VWS V14.01,2013-01-05 16:32:00,
2013-01-05 10:37:00,46.5,41.3,30.29,NNW,348,6.0,12.0,82,0.00,,---,0.00,VWS V14.01,2013-01-05 16:37:00,
2013-01-05 10:42:00,46.2,41.6,30.29,NNW,344,8.0,15.0,84,0.00,,---,0.00,VWS V14.01,2013-01-05 16:42:00,
2013-01-05 10:47:00,46.1,41.8,30.29,NNE,14,6.0,8.0,85,0.00,,---,0.00,VWS V14.01,2013-01-05 16:47:00,
2013-01-05 10:52:00,46.1,42.2,30.29,NNW,342,4.0,9.0,86,0.00,,---,0.00,VWS V14.01,2013-01-05 16:52:00,
2013-01-05 10:57:00,46.2,42.5,30.29,NNW,348,4.0,9.0,87,0.00,,---,0.00,VWS V14.01,2013-01-05 16:57:00,
2013-01-05 11:02:00,46.1,42.5,30.29,NW,321,7.0,8.0,87,0.00,,---,0.00,VWS V14.01,2013-01-05 17:02:00,
2013-01-05 11:07:00,46.1,42.5,30.29,North,350,5.0,14.0,87,0.00,,---,0.00,VWS V14.01,2013-01-05 17:07:00,
2013-01-05 11:12:00,46.1,42.5,30.29,NNE,14,9.0,14.0,87,0.00,,---,0.00,VWS V14.01,2013-01-05 17:12:00,
2013-01-05 11:17:00,46.1,42.5,30.29,NNW,334,5.0,7.0,87,0.00,,---,0.00,VWS V14.01,2013-01-05 17:17:00,
2013-01-05 11:22:00,46.2,42.5,30.29,North,1,5.0,12.0,87,0.00,,---,0.00,VWS V14.01,2013-01-05 17:22:00,
2013-01-05 11:27:00,46.2,42.5,30.29,NW,324,7.0,12.0,87,0.00,,---,0.00,VWS V14.01,2013-01-05 17:27:00,
2013-01-05 11:32:00,46.1,42.2,30.28,North,1,9.0,10.0,86,0.00,,---,0.00,VWS V14.01,2013-01-05 17:32:00,
2013-01-05 11:37:00,46.1,42.2,30.28,NNW,330,4.0,10.0,86,0.00,,---,0.00,VWS V14.01,2013-01-05 17:37:00,
2013-01-05 11:42:00,46.1,42.5,30.28,North,358,6.0,10.0,87,0.00,,---,0.00,VWS V14.01,2013-01-05 17:42:00,
2013-01-05 11:47:00,46.2,42.5,30.28,North,352,6.0,8.0,87,0.00,,---,0.00,VWS V14.01,2013-01-05 17:47:00,
2013-01-05 11:52:00,46.2,42.8,30.28,NNW,340,2.0,8.0,88,0.00,,---,0.00,VWS V14.01,2013-01-05 17:52:00,
2013-01-05 11:57:00,46.4,43.0,30.28,NNW,331,5.0,8.0,88,0.00,,---,0.00,VWS V14.01,2013-01-05 17:57:00,
2013-01-05 12:02:00,46.4,43.0,30.27,NNW,341,4.0,6.0,88,0.00,,---,0.00,VWS V14.01,2013-01-05 18:02:00,
2013-01-05 12:07:00,46.5,43.1,30.27,North,352,7.0,7.0,88,0.00,,---,0.00,VWS V14.01,2013-01-05 18:07:00,
2013-01-05 12:12:00,46.5,43.1,30.27,NNW,331,6.0,8.0,88,0.00,,---,0.00,VWS V14.01,2013-01-05 18:12:00,
2013-01-05 12:17:00,46.5,43.1,30.26,NNW,331,3.0,8.0,88,0.00,,---,0.00,VWS V14.01,2013-01-05 18:17:00,
2013-01-05 12:22:00,46.7,43.6,30.26,North,1,5.0,8.0,89,0.00,,---,0.00,VWS V14.01,2013-01-05 18:22:00,
2013-01-05 12:27:00,46.8,43.4,30.26,NNW,347,7.0,8.0,88,0.00,,---,0.00,VWS V14.01,2013-01-05 18:27:00,
2013-01-05 12:32:00,46.8,43.1,30.25,North,358,6.0,7.0,87,0.00,,---,0.00,VWS V14.01,2013-01-05 18:32:00,
2013-01-05 12:37:00,46.8,42.8,30.25,NNW,341,6.0,11.0,86,0.00,,---,0.00,VWS V14.01,2013-01-05 18:37:00,
2013-01-05 12:42:00,46.8,42.8,30.25,North,357,5.0,11.0,86,0.00,,---,0.00,VWS V14.01,2013-01-05 18:42:00,
2013-01-05 12:47:00,47.0,42.7,30.24,North,358,8.0,9.0,85,0.00,,---,0.00,VWS V14.01,2013-01-05 18:47:00,
2013-01-05 12:52:00,47.1,42.5,30.24,NNW,348,6.0,11.0,84,0.00,,---,0.00,VWS V14.01,2013-01-05 18:52:00,
2013-01-05 12:57:00,47.6,43.0,30.24,North,358,3.0,11.0,84,0.00,,---,0.00,VWS V14.01,2013-01-05 18:57:00,
2013-01-05 13:02:00,47.7,43.1,30.24,North,357,4.0,8.0,84,0.00,,---,0.00,VWS V14.01,2013-01-05 19:02:00,
2013-01-05 13:07:00,47.9,43.6,30.24,North,358,7.0,12.0,85,0.00,,---,0.00,VWS V14.01,2013-01-05 19:07:00,
2013-01-05 13:12:00,47.9,43.9,30.24,North,4,6.0,12.0,86,0.00,,---,0.00,VWS V14.01,2013-01-05 19:12:00,
2013-01-05 13:17:00,48.0,44.3,30.23,North,354,6.0,6.0,87,0.00,,---,0.00,VWS V14.01,2013-01-05 19:17:00,
2013-01-05 13:22:00,47.9,44.2,30.23,North,351,5.0,7.0,87,0.00,,---,0.00,VWS V14.01,2013-01-05 19:22:00,
2013-01-05 13:27:00,47.9,44.5,30.23,North,350,2.0,7.0,88,0.00,,---,0.00,VWS V14.01,2013-01-05 19:27:00,
2013-01-05 13:32:00,47.7,44.0,30.22,North,6,7.0,9.0,87,0.00,,---,0.00,VWS V14.01,2013-01-05 19:32:00,
2013-01-05 13:37:00,47.6,43.9,30.22,NNW,348,3.0,9.0,87,0.00,,---,0.00,VWS V14.01,2013-01-05 19:37:00,
2013-01-05 13:42:00,47.7,44.0,30.22,North,351,4.0,9.0,87,0.00,,---,0.00,VWS V14.01,2013-01-05 19:42:00,
2013-01-05 13:47:00,47.9,44.2,30.22,NNW,335,4.0,8.0,87,0.00,,---,0.00,VWS V14.01,2013-01-05 19:47:00,
2013-01-05 13:52:00,47.9,43.9,30.22,NNW,330,6.0,8.0,86,0.00,,---,0.00,VWS V14.01,2013-01-05 19:52:00,
2013-01-05 13:57:00,48.2,44.2,30.22,NNW,344,3.0,8.0,86,0.00,,---,0.00,VWS V14.01,2013-01-05 19:57:00,
2013-01-05 14:02:00,48.3,44.3,30.21,North,358,6.0,11.0,86,0.00,,---,0.00,VWS V14.01,2013-01-05 20:02:00,
2013-01-05 14:07:00,48.5,44.5,30.21,North,358,7.0,11.0,86,0.00,,---,0.00,VWS V14.01,2013-01-05 20:07:00,
2013-01-05 14:12:00,48.5,44.5,30.21,North,355,3.0,11.0,86,0.00,,---,0.00,VWS V14.01,2013-01-05 20:12:00,
2013-01-05 14:17:00,48.6,44.6,30.21,North,8,9.0,9.0,86,0.00,,---,0.00,VWS V14.01,2013-01-05 20:17:00,
2013-01-05 14:22:00,48.6,44.3,30.21,NNW,345,3.0,9.0,85,0.00,,---,0.00,VWS V14.01,2013-01-05 20:22:00,
2013-01-05 14:27:00,48.8,44.2,30.21,North,354,4.0,12.0,84,0.00,,---,0.00,VWS V14.01,2013-01-05 20:27:00,
2013-01-05 14:32:00,48.8,44.2,30.21,North,8,8.0,12.0,84,0.00,,---,0.00,VWS V14.01,2013-01-05 20:32:00,
2013-01-05 14:37:00,48.8,43.9,30.21,North,355,7.0,13.0,83,0.00,,---,0.00,VWS V14.01,2013-01-05 20:37:00,
2013-01-05 14:43:00,48.8,44.2,30.21,North,358,4.0,13.0,84,0.00,,---,0.00,VWS V14.01,2013-01-05 20:43:00,
2013-01-05 14:48:00,48.8,43.9,30.21,North,358,7.0,8.0,83,0.00,,---,0.00,VWS V14.01,2013-01-05 20:48:00,
2013-01-05 14:53:00,48.8,43.9,30.21,North,358,7.0,11.0,83,0.00,,---,0.00,VWS V14.01,2013-01-05 20:53:00,
2013-01-05 14:58:00,48.8,43.9,30.21,North,358,3.0,12.0,83,0.00,,---,0.00,VWS V14.01,2013-01-05 20:58:00,
2013-01-05 15:03:00,48.6,43.7,30.21,North,11,6.0,9.0,83,0.00,,---,0.00,VWS V14.01,2013-01-05 21:03:00,
2013-01-05 15:08:00,48.8,44.2,30.21,NNE,22,6.0,9.0,84,0.00,,---,0.00,VWS V14.01,2013-01-05 21:08:00,
2013-01-05 15:13:00,48.9,44.3,30.21,North,5,5.0,9.0,84,0.00,,---,0.00,VWS V14.01,2013-01-05 21:13:00,
2013-01-05 15:18:00,48.9,44.0,30.20,North,355,4.0,9.0,83,0.00,,---,0.00,VWS V14.01,2013-01-05 21:18:00,
2013-01-05 15:23:00,49.1,44.2,30.20,North,2,6.0,11.0,83,0.00,,---,0.00,VWS V14.01,2013-01-05 21:23:00,
2013-01-05 15:28:00,49.2,44.3,30.20,NNE,21,4.0,11.0,83,0.00,,---,0.00,VWS V14.01,2013-01-05 21:28:00,
2013-01-05 15:33:00,49.2,44.3,30.20,North,11,1.0,9.0,83,0.00,,---,0.00,VWS V14.01,2013-01-05 21:33:00,
2013-01-05 15:38:00,49.4,44.5,30.20,North,4,4.0,9.0,83,0.00,,---,0.00,VWS V14.01,2013-01-05 21:38:00,
2013-01-05 15:43:00,49.5,44.6,30.20,NNE,18,4.0,9.0,83,0.00,,---,0.00,VWS V14.01,2013-01-05 21:43:00,
2013-01-05 15:48:00,49.5,44.2,30.20,North,358,6.0,11.0,82,0.00,,---,0.00,VWS V14.01,2013-01-05 21:48:00,
2013-01-05 15:53:00,49.4,44.1,30.20,North,358,4.0,11.0,82,0.00,,---,0.00,VWS V14.01,2013-01-05 21:53:00,
2013-01-05 15:58:00,49.4,44.5,30.20,North,1,8.0,11.0,83,0.00,,---,0.00,VWS V14.01,2013-01-05 21:58:00,
2013-01-05 16:03:00,49.2,44.0,30.20,North,11,8.0,9.0,82,0.00,,---,0.00,VWS V14.01,2013-01-05 22:03:00,
2013-01-05 16:08:00,49.4,44.5,30.20,North,355,2.0,10.0,83,0.00,,---,0.00,VWS V14.01,2013-01-05 22:08:00,
2013-01-05 16:13:00,49.5,44.6,30.20,NNE,30,3.0,12.0,83,0.00,,---,0.00,VWS V14.01,2013-01-05 22:13:00,
2013-01-05 16:18:00,49.6,44.3,30.20,North,358,3.0,8.0,82,0.00,,---,0.00,VWS V14.01,2013-01-05 22:18:00,
2013-01-05 16:23:00,49.6,44.3,30.20,North,358,3.0,9.0,82,0.00,,---,0.00,VWS V14.01,2013-01-05 22:23:00,
2013-01-05 16:28:00,49.6,44.3,30.20,North,357,4.0,9.0,82,0.00,,---,0.00,VWS V14.01,2013-01-05 22:28:00,
2013-01-05 16:33:00,49.8,44.5,30.20,North,357,4.0,7.0,82,0.00,,---,0.00,VWS V14.01,2013-01-05 22:33:00,
2013-01-05 16:38:00,49.8,44.5,30.20,North,9,4.0,8.0,82,0.00,,---,0.00,VWS V14.01,2013-01-05 22:38:00,
2013-01-05 16:43:00,49.8,44.8,30.20,North,8,5.0,11.0,83,0.00,,---,0.00,VWS V14.01,2013-01-05 22:43:00,
2013-01-05 16:48:00,49.6,44.7,30.19,North,358,4.0,7.0,83,0.00,,---,0.00,VWS V14.01,2013-01-05 22:48:00,
2013-01-05 16:53:00,49.6,44.3,30.19,North,359,4.0,12.0,82,0.00,,---,0.00,VWS V14.01,2013-01-05 22:53:00,
2013-01-05 16:58:00,49.6,44.3,30.19,North,358,6.0,12.0,82,0.00,,---,0.00,VWS V14.01,2013-01-05 22:58:00,
2013-01-05 17:03:00,49.5,44.2,30.19,North,4,4.0,9.0,82,0.00,,---,0.00,VWS V14.01,2013-01-05 23:03:00,
2013-01-05 17:08:00,49.4,44.5,30.19,North,358,3.0,11.0,83,0.00,,---,0.00,VWS V14.01,2013-01-05 23:08:00,
2013-01-05 17:13:00,49.4,44.5,30.19,North,358,9.0,11.0,83,0.00,,---,0.00,VWS V14.01,2013-01-05 23:13:00,
2013-01-05 17:18:00,49.4,44.5,30.19,North,358,4.0,7.0,83,0.00,,---,0.00,VWS V14.01,2013-01-05 23:18:00,
2013-01-05 17:23:00,49.4,44.5,30.19,North,358,4.0,9.0,83,0.00,,---,0.00,VWS V14.01,2013-01-05 23:23:00,
2013-01-05 17:28:00,49.4,44.5,30.19,North,359,3.0,9.0,83,0.00,,---,0.00,VWS V14.01,2013-01-05 23:28:00,
2013-01-05 17:33:00,49.4,44.5,30.19,North,1,3.0,8.0,83,0.00,,---,0.00,VWS V14.01,2013-01-05 23:33:00,
2013-01-05 17:38:00,49.4,44.5,30.19,North,1,6.0,8.0,83,0.00,,---,0.00,VWS V14.01,2013-01-05 23:38:00,
2013-01-05 17:43:00,49.4,44.5,30.19,NNE,19,8.0,12.0,83,0.00,,---,0.00,VWS V14.01,2013-01-05 23:43:00,
2013-01-05 17:48:00,49.2,44.3,30.19,North,358,3.0,11.0,83,0.00,,---,0.00,VWS V14.01,2013-01-05 23:48:00,
2013-01-05 17:53:00,49.2,44.3,30.19,North,6,4.0,11.0,83,0.00,,---,0.00,VWS V14.01,2013-01-05 23:53:00,
2013-01-05 17:58:00,49.2,44.3,30.19,NNE,12,3.0,11.0,83,0.00,,---,0.00,VWS V14.01,2013-01-05 23:58:00,
2013-01-05 18:03:00,49.2,44.3,30.19,NNE,21,4.0,6.0,83,0.00,,---,0.00,VWS V14.01,2013-01-06 00:03:00,
2013-01-05 18:08:00,49.2,44.3,30.19,North,357,5.0,8.0,83,0.00,,---,0.00,VWS V14.01,2013-01-06 00:08:00,
2013-01-05 18:13:00,49.2,44.6,30.19,North,358,4.0,8.0,84,0.00,,---,0.00,VWS V14.01,2013-01-06 00:13:00,
2013-01-05 18:18:00,49.2,44.6,30.20,North,358,3.0,8.0,84,0.00,,---,0.00,VWS V14.01,2013-01-06 00:18:00,
2013-01-05 18:23:00,49.2,44.6,30.20,North,355,6.0,12.0,84,0.00,,---,0.00,VWS V14.01,2013-01-06 00:23:00,
2013-01-05 18:28:00,49.1,44.5,30.20,North,358,5.0,12.0,84,0.00,,---,0.00,VWS V14.01,2013-01-06 00:28:00,
2013-01-05 18:33:00,49.1,44.5,30.19,North,358,2.0,8.0,84,0.00,,---,0.00,VWS V14.01,2013-01-06 00:33:00,
2013-01-05 18:38:00,49.2,44.6,30.19,North,8,6.0,9.0,84,0.00,,---,0.00,VWS V14.01,2013-01-06 00:38:00,
2013-01-05 18:43:00,49.1,44.5,30.19,North,2,6.0,10.0,84,0.00,,---,0.00,VWS V14.01,2013-01-06 00:43:00,
2013-01-05 18:48:00,49.2,44.6,30.20,North,351,8.0,9.0,84,0.00,,---,0.00,VWS V14.01,2013-01-06 00:48:00,
2013-01-05 18:53:00,49.2,44.6,30.20,NNE,14,4.0,10.0,84,0.00,,---,0.00,VWS V14.01,2013-01-06 00:53:00,
2013-01-05 18:58:00,49.2,44.6,30.20,North,358,4.0,10.0,84,0.00,,---,0.00,VWS V14.01,2013-01-06 00:58:00,
2013-01-05 19:03:00,49.2,44.6,30.20,NNE,15,4.0,6.0,84,0.00,,---,0.00,VWS V14.01,2013-01-06 01:03:00,
2013-01-05 19:08:00,49.2,44.6,30.20,North,4,2.0,8.0,84,0.00,,---,0.00,VWS V14.01,2013-01-06 01:08:00,
2013-01-05 19:13:00,49.2,44.6,30.20,North,6,4.0,8.0,84,0.00,,---,0.00,VWS V14.01,2013-01-06 01:13:00,
2013-01-05 19:18:00,49.2,44.6,30.20,North,6,8.0,8.0,84,0.00,,---,0.00,VWS V14.01,2013-01-06 01:18:00,
2013-01-05 19:23:00,49.2,44.6,30.20,North,358,6.0,8.0,84,0.00,,---,0.00,VWS V14.01,2013-01-06 01:23:00,
2013-01-05 19:28:00,49.2,44.6,30.20,North,1,4.0,9.0,84,0.00,,---,0.00,VWS V14.01,2013-01-06 01:28:00,
2013-01-05 19:34:00,49.2,44.6,30.20,North,358,4.0,8.0,84,0.00,,---,0.00,VWS V14.01,2013-01-06 01:34:00,
2013-01-05 19:39:00,49.2,44.6,30.20,North,358,1.0,8.0,84,0.00,,---,0.00,VWS V14.01,2013-01-06 01:39:00,
2013-01-05 19:44:00,49.2,44.6,30.20,North,359,6.0,8.0,84,0.00,,---,0.00,VWS V14.01,2013-01-06 01:44:00,
2013-01-05 19:49:00,49.2,44.6,30.20,North,358,2.0,4.0,84,0.00,,---,0.00,VWS V14.01,2013-01-06 01:49:00,
2013-01-05 19:54:00,49.2,44.6,30.20,North,355,4.0,7.0,84,0.00,,---,0.00,VWS V14.01,2013-01-06 01:54:00,
2013-01-05 19:59:00,49.2,44.6,30.20,North,357,3.0,7.0,84,0.00,,---,0.00,VWS V14.01,2013-01-06 01:59:00,
2013-01-05 20:04:00,49.2,44.6,30.21,North,11,3.0,8.0,84,0.00,,---,0.00,VWS V14.01,2013-01-06 02:04:00,
2013-01-05 20:09:00,49.2,44.6,30.21,North,358,4.0,8.0,84,0.00,,---,0.00,VWS V14.01,2013-01-06 02:09:00,
2013-01-05 20:14:00,49.4,44.8,30.21,North,350,4.0,8.0,84,0.00,,---,0.00,VWS V14.01,2013-01-06 02:14:00,
2013-01-05 20:19:00,49.4,44.8,30.21,North,358,4.0,6.0,84,0.00,,---,0.00,VWS V14.01,2013-01-06 02:19:00,
2013-01-05 20:24:00,49.4,44.8,30.21,North,355,2.0,8.0,84,0.00,,---,0.00,VWS V14.01,2013-01-06 02:24:00,
2013-01-05 20:29:00,49.4,44.8,30.21,North,354,6.0,8.0,84,0.00,,---,0.00,VWS V14.01,2013-01-06 02:29:00,
2013-01-05 20:34:00,49.4,44.8,30.21,North,355,4.0,5.0,84,0.00,,---,0.00,VWS V14.01,2013-01-06 02:34:00,
2013-01-05 20:39:00,49.4,44.8,30.21,North,358,2.0,6.0,84,0.00,,---,0.00,VWS V14.01,2013-01-06 02:39:00,
2013-01-05 20:44:00,49.4,44.8,30.21,North,358,3.0,6.0,84,0.00,,---,0.00,VWS V14.01,2013-01-06 02:44:00,
2013-01-05 20:49:00,49.4,44.8,30.21,North,357,2.0,7.0,84,0.00,,---,0.00,VWS V14.01,2013-01-06 02:49:00,
2013-01-05 20:54:00,49.4,44.8,30.21,North,358,4.0,7.0,84,0.00,,---,0.00,VWS V14.01,2013-01-06 02:54:00,
2013-01-05 20:59:00,49.4,44.8,30.21,North,358,5.0,7.0,84,0.00,,---,0.00,VWS V14.01,2013-01-06 02:59:00,
2013-01-05 21:04:00,49.4,44.8,30.22,North,357,6.0,7.0,84,0.00,,---,0.00,VWS V14.01,2013-01-06 03:04:00,
2013-01-05 21:09:00,49.4,44.8,30.22,North,357,3.0,7.0,84,0.00,,---,0.00,VWS V14.01,2013-01-06 03:09:00,
2013-01-05 21:14:00,49.4,44.8,30.22,North,357,4.0,7.0,84,0.00,,---,0.00,VWS V14.01,2013-01-06 03:14:00,
2013-01-05 21:19:00,49.5,44.9,30.23,North,357,2.0,6.0,84,0.00,,---,0.00,VWS V14.01,2013-01-06 03:19:00,
2013-01-05 21:24:00,49.5,44.9,30.23,North,357,1.0,6.0,84,0.00,,---,0.00,VWS V14.01,2013-01-06 03:24:00,
2013-01-05 21:29:00,49.5,44.9,30.23,North,357,2.0,6.0,84,0.00,,---,0.00,VWS V14.01,2013-01-06 03:29:00,
2013-01-05 21:34:00,49.6,45.0,30.23,North,357,3.0,4.0,84,0.00,,---,0.00,VWS V14.01,2013-01-06 03:34:00,
2013-01-05 21:39:00,49.6,45.0,30.23,North,357,2.0,4.0,84,0.00,,---,0.00,VWS V14.01,2013-01-06 03:39:00,
2013-01-05 21:44:00,49.8,45.2,30.23,North,357,1.0,4.0,84,0.00,,---,0.00,VWS V14.01,2013-01-06 03:44:00,
2013-01-05 21:49:00,49.8,45.2,30.24,North,357,1.0,4.0,84,0.00,,---,0.00,VWS V14.01,2013-01-06 03:49:00,
2013-01-05 21:54:00,49.8,45.2,30.24,North,357,2.0,4.0,84,0.00,,---,0.00,VWS V14.01,2013-01-06 03:54:00,
2013-01-05 21:59:00,49.8,45.2,30.24,North,357,1.0,6.0,84,0.00,,---,0.00,VWS V14.01,2013-01-06 03:59:00,
2013-01-05 22:04:00,49.8,45.2,30.24,North,357,3.0,4.0,84,0.00,,---,0.00,VWS V14.01,2013-01-06 04:04:00,
2013-01-05 22:09:00,49.8,45.2,30.24,North,357,3.0,4.0,84,0.00,,---,0.00,VWS V14.01,2013-01-06 04:09:00,
2013-01-05 22:14:00,49.8,45.2,30.24,North,357,2.0,4.0,84,0.00,,---,0.00,VWS V14.01,2013-01-06 04:14:00,
2013-01-05 22:19:00,49.8,44.8,30.24,North,357,2.0,4.0,83,0.00,,---,0.00,VWS V14.01,2013-01-06 04:19:00,
2013-01-05 22:24:00,49.8,44.8,30.24,North,357,2.0,6.0,83,0.00,,---,0.00,VWS V14.01,2013-01-06 04:24:00,
2013-01-05 22:29:00,49.8,44.8,30.24,North,358,6.0,8.0,83,0.00,,---,0.00,VWS V14.01,2013-01-06 04:29:00,
2013-01-05 22:34:00,49.8,44.8,30.24,North,358,3.0,7.0,83,0.00,,---,0.00,VWS V14.01,2013-01-06 04:34:00,
2013-01-05 22:39:00,49.8,44.8,30.24,North,357,2.0,7.0,83,0.00,,---,0.00,VWS V14.01,2013-01-06 04:39:00,
2013-01-05 22:44:00,49.9,45.0,30.24,North,358,2.0,8.0,83,0.00,,---,0.00,VWS V14.01,2013-01-06 04:44:00,
2013-01-05 22:49:00,49.9,45.0,30.24,North,358,3.0,5.0,83,0.00,,---,0.00,VWS V14.01,2013-01-06 04:49:00,
2013-01-05 22:54:00,49.9,45.0,30.24,North,358,4.0,7.0,83,0.00,,---,0.00,VWS V14.01,2013-01-06 04:54:00,
2013-01-05 22:59:00,49.9,45.0,30.23,North,358,5.0,7.0,83,0.00,,---,0.00,VWS V14.01,2013-01-06 04:59:00,
2013-01-05 23:00:00,49.9,44.6,30.23,North,358,3.0,7.0,82,0.00,,---,0.00,VWS V14.01,2013-01-06 05:00:00,
2013-01-05 23:01:00,49.9,44.6,30.23,North,358,1.0,3.0,82,0.00,,---,0.00,VWS V14.01,2013-01-06 05:01:00,
2013-01-05 23:06:00,49.9,44.6,30.23,North,358,3.0,7.0,82,0.00,,---,0.00,VWS V14.01,2013-01-06 05:06:00,
2013-01-05 23:11:00,49.9,44.6,30.23,North,354,4.0,7.0,82,0.00,,---,0.00,VWS V14.01,2013-01-06 05:11:00,
2013-01-05 23:16:00,49.9,44.3,30.23,North,354,3.0,6.0,81,0.00,,---,0.00,VWS V14.01,2013-01-06 05:16:00,
2013-01-05 23:21:00,50.1,44.5,30.23,North,351,3.0,7.0,81,0.00,,---,0.00,VWS V14.01,2013-01-06 05:21:00,
2013-01-05 23:26:00,50.1,44.5,30.23,North,358,4.0,8.0,81,0.00,,---,0.00,VWS V14.01,2013-01-06 05:26:00,
2013-01-05 23:31:00,50.1,44.5,30.22,North,358,3.0,5.0,81,0.00,,---,0.00,VWS V14.01,2013-01-06 05:31:00,
2013-01-05 23:36:00,50.2,44.6,30.22,North,358,4.0,7.0,81,0.00,,---,0.00,VWS V14.01,2013-01-06 05:36:00,
2013-01-05 23:41:00,50.2,44.6,30.22,North,358,3.0,7.0,81,0.00,,---,0.00,VWS V14.01,2013-01-06 05:41:00,
2013-01-05 23:46:00,50.2,44.6,30.22,North,358,2.0,6.0,81,0.00,,---,0.00,VWS V14.01,2013-01-06 05:46:00,
2013-01-05 23:51:00,50.4,44.8,30.22,North,358,3.0,7.0,81,0.00,,---,0.00,VWS V14.01,2013-01-06 05:51:00,
2013-01-05 23:56:00,50.4,45.1,30.22,North,357,3.0,7.0,82,0.00,,---,0.00,VWS V14.01,2013-01-06 05:56:00,